Skip Page Navigation
NASA JPL Caltech
NASA Logo - Jet Propulsion Laboratory + View the NASA Portal
+ Center for Near-Earth Object Studies
JPL Home Earth Solar System Stars & Galaxies Technology
JPL Solar System Dynamics
BODIES ORBITS EPHEMERIDES TOOLS PHYSICAL DATA DISCOVERY FAQ SITE MAP
JPL Small-Body Database Browser
Search: [ help ]  
214705 (2006 SF353)
Classification: Main-belt Asteroid          SPK-ID: 2214705
Ephemeris | Orbit Diagram | Orbital Elements | Mission Design | Physical Parameters | Discovery Circumstances ]

[ show orbit diagram ]
Orbital Elements at Epoch 2459000.5 (2020-May-31.0) TDB
Reference: JPL 15 (heliocentric ecliptic J2000)
 Element Value Uncertainty (1-sigma)   Units 
e .07755661011973909 5.0232e-08  
a 2.706113977237246 2.225e-08 au
q 2.49623695056508 1.3442e-07 au
i 4.274953789771537 4.559e-06 deg
node 108.61220990 7.684e-05 deg
peri 198.9793019379088 8.6096e-05 deg
M 89.77432649005631 3.7494e-05 deg
tp 2458595.022081510006
(2019-Apr-21.52208151)
0.00017049 TDB
period 1625.988813990894
4.45
2.0054e-05
5.49e-08
d
yr
n .2214037371612669 2.7307e-09 deg/d
Q 2.915991003909412 2.3976e-08 au
  Orbit Determination Parameters
   # obs. used (total)      323  
   data-arc span      6663 days (18.24 yr)  
   first obs. used      2001-07-27  
   last obs. used      2019-10-24  
   planetary ephem.      DE431  
   SB-pert. ephem.      SB431-N16  
   condition code      0  
   norm. resid. RMS      .62798  
   source      ORB  
   producer      Otto Matic  
   solution date      2019-Nov-07 23:55:16  

Additional Information
 Earth MOID = 1.48174 au 
 Jupiter MOID = 2.25695 au 
 T_jup = 3.357 
[ show covariance matrix ]

Ephemeris | Orbit Diagram | Orbital Elements | Mission Design | Physical Parameters | Discovery Circumstances ]

Physical Parameter Table
Parameter Symbol Value Units Sigma Reference Notes
absolute magnitude H 16.0   n/a MPO450013  

214705 (2006 SF353)          Discovered 2006-Sep-30 by CSS at Catalina
Reference: 20090509/Numbers.arcLast Updated: 2009-05-11
Ephemeris | Orbit Diagram | Orbital Elements | Mission Design | Physical Parameters | Discovery Circumstances ]
ABOUT SSD CREDITS/AWARDS PRIVACY/COPYRIGHT GLOSSARY LINKS
FirstGov 2020-Aug-13 18:29 UT
(server date/time)  
NASA Home Page
Site Manager:   Ryan S. Park
Webmaster  Alan B. Chamberlin